Location: Unspecified
(0.0000°N, 0.0000°E)
Time: 12:21:11
(UTC+00:00)

Transit 2A Rocket - All Passes

Search period start: 29 January 2015 00:00
Search period end: 08 February 2015 00:00
Orbit: 585 x 922 km, 66.7° (Epoch: 27 January)

Date Brightness Start Highest point End Pass type
(mag) Time Alt. Az. Time Alt. Az. Time Alt. Az.
29 Jan - 04:00:46 10° NNW 04:06:40 80° ENE 04:12:06 10° SSE visible
29 Jan - 14:52:42 10° ESE 14:53:17 10° ESE 14:54:15 10° E daylight
29 Jan - 16:31:31 10° SW 16:35:42 35° WNW 16:40:11 10° N daylight
30 Jan - 03:19:17 10° N 03:24:43 39° ENE 03:29:50 10° SE visible
30 Jan - 05:03:54 10° WNW 05:07:13 15° WSW 05:10:03 10° SW visible
30 Jan - 15:49:14 10° SSW 15:53:46 81° WNW 15:58:43 10° NNE daylight
31 Jan - 02:38:35 10° NNE 02:42:39 20° ENE 02:46:45 10° ESE visible
31 Jan - 04:20:13 10° NW 04:25:17 30° WSW 04:29:55 10° S visible
31 Jan - 15:07:37 10° S 15:11:54 43° ESE 15:16:35 10° NE daylight
01 Feb - 03:37:38 10° NNW 03:43:24 62° WSW 03:48:42 10° S visible
01 Feb - 14:26:50 10° SSE 14:30:02 20° ESE 14:33:35 10° ENE daylight
01 Feb - 16:09:01 10° WSW 16:12:32 20° WNW 16:16:04 10° NNW daylight
02 Feb - 02:55:42 10° NNW 03:01:30 66° ENE 03:06:52 10° SSE visible
02 Feb - 15:26:07 10° SW 15:30:30 44° WNW 15:35:13 10° N daylight
03 Feb - 02:14:23 10° N 02:19:31 33° ENE 02:24:25 10° SE night (unlit)
03 Feb - 03:58:08 10° WNW 04:02:02 18° WSW 04:05:28 10° SSW visible
03 Feb - 14:44:01 10° SSW 14:48:35 81° ESE 14:53:34 10° NNE daylight
04 Feb - 01:34:00 10° NNE 01:37:25 17° ENE 01:40:59 10° ESE night (unlit)
04 Feb - 03:14:50 10° NW 03:20:07 36° WSW 03:24:57 10° S visible
04 Feb - 14:02:35 10° S 14:06:43 35° ESE 14:11:14 10° NE daylight
04 Feb - 15:47:43 10° W 15:49:25 11° WNW 15:50:47 10° NW daylight
05 Feb - 02:32:26 10° NNW 02:38:14 74° WSW 02:43:34 10° SSE night (unlit)
05 Feb - 13:22:07 10° SSE 13:24:49 16° ESE 13:27:54 10° ENE daylight
05 Feb - 15:03:24 10° WSW 15:07:17 25° WNW 15:11:18 10° NNW daylight
06 Feb - 01:50:39 10° N 01:56:19 55° ENE 02:01:34 10° SSE night (unlit)
06 Feb - 14:20:45 10° SSW 14:25:16 55° WNW 14:30:12 10° N daylight
07 Feb - 01:09:31 10° NNE 01:14:18 27° ENE 01:18:54 10° SE night (unlit)
07 Feb - 02:52:30 10° WNW 02:56:50 21° WSW 03:00:44 10° SSW night (unlit)
07 Feb - 13:38:50 10° SSW 13:43:23 65° ESE 13:48:21 10° NNE daylight
